Time,TemperatureF,DewpointF,PressureIn,WindDirection,WindDirectionDegrees,WindSpeedMPH,WindSpeedGustMPH,Humidity,HourlyPrecipIn,Conditions,Clouds,dailyrainin,SoftwareType,DateUTC
2013-11-01 00:00:00,61.3,60.4,29.85,WSW,240,8.0,18.0,97,0.01,,---,0.01,VWS V14.01,2013-11-01 04:00:00,
2013-11-01 00:01:00,61.3,60.4,29.85,WNW,293,10.0,18.0,97,0.01,,---,0.01,VWS V14.01,2013-11-01 04:01:00,
2013-11-01 00:06:00,61.4,60.5,29.85,WSW,250,11.0,17.0,97,0.01,,---,0.00,VWS V14.01,2013-11-01 04:06:00,
2013-11-01 00:11:00,61.4,60.5,29.85,WSW,244,8.0,17.0,97,0.01,,---,0.00,VWS V14.01,2013-11-01 04:11:00,
2013-11-01 00:16:00,61.5,60.6,29.84,SSE,148,10.0,17.0,97,0.01,,---,0.00,VWS V14.01,2013-11-01 04:16:00,
2013-11-01 00:21:00,61.5,60.6,29.84,SW,225,12.0,17.0,97,0.01,,---,0.00,VWS V14.01,2013-11-01 04:21:00,
2013-11-01 00:26:00,61.5,60.3,29.83,SSW,198,12.0,17.0,96,0.01,,---,0.00,VWS V14.01,2013-11-01 04:26:00,
2013-11-01 00:31:00,61.6,60.5,29.83,WSW,242,9.0,13.0,96,0.00,,---,0.00,VWS V14.01,2013-11-01 04:31:00,
2013-11-01 00:36:00,61.6,60.5,29.83,South,181,7.0,17.0,96,0.00,,---,0.00,VWS V14.01,2013-11-01 04:36:00,
2013-11-01 00:41:00,61.6,60.5,29.82,SSW,195,4.0,17.0,96,0.00,,---,0.00,VWS V14.01,2013-11-01 04:41:00,
2013-11-01 00:46:00,61.6,60.5,29.83,ESE,107,12.0,17.0,96,0.00,,---,0.00,VWS V14.01,2013-11-01 04:46:00,
2013-11-01 00:51:00,61.6,60.5,29.82,WSW,248,8.0,17.0,96,0.00,,---,0.00,VWS V14.01,2013-11-01 04:51:00,
2013-11-01 00:56:00,61.6,60.5,29.82,South,189,6.0,17.0,96,0.00,,---,0.00,VWS V14.01,2013-11-01 04:56:00,
2013-11-01 01:01:00,61.6,60.5,29.82,South,178,17.0,17.0,96,0.00,,---,0.00,VWS V14.01,2013-11-01 05:01:00,
2013-11-01 01:06:00,61.8,60.7,29.82,SW,223,7.0,18.0,96,0.00,,---,0.00,VWS V14.01,2013-11-01 05:06:00,
2013-11-01 01:11:00,61.8,60.7,29.82,WSW,244,7.0,18.0,96,0.00,,---,0.00,VWS V14.01,2013-11-01 05:11:00,
2013-11-01 01:16:00,61.8,60.7,29.82,SW,219,10.0,18.0,96,0.00,,---,0.00,VWS V14.01,2013-11-01 05:16:00,
2013-11-01 01:21:00,61.9,60.8,29.82,NNE,24,5.0,20.0,96,0.00,,---,0.00,VWS V14.01,2013-11-01 05:21:00,
2013-11-01 01:26:00,61.9,60.8,29.81,South,190,5.0,20.0,96,0.00,,---,0.00,VWS V14.01,2013-11-01 05:26:00,
2013-11-01 01:31:00,61.9,60.8,29.81,South,181,8.0,14.0,96,0.00,,---,0.00,VWS V14.01,2013-11-01 05:31:00,
2013-11-01 01:36:00,61.8,60.7,29.80,SW,226,10.0,17.0,96,0.00,,---,0.00,VWS V14.01,2013-11-01 05:36:00,
2013-11-01 01:41:00,61.8,60.7,29.80,ESE,115,6.0,18.0,96,0.00,,---,0.00,VWS V14.01,2013-11-01 05:41:00,
2013-11-01 01:45:00,61.9,60.8,29.80,SSE,150,11.0,18.0,96,0.00,,---,0.00,VWS V14.01,2013-11-01 05:45:00,
2013-11-01 01:50:00,61.9,60.8,29.79,SW,227,8.0,18.0,96,0.00,,---,0.00,VWS V14.01,2013-11-01 05:50:00,
2013-11-01 01:55:00,61.9,60.8,29.78,SW,219,9.0,18.0,96,0.00,,---,0.00,VWS V14.01,2013-11-01 05:55:00,
2013-11-01 02:00:00,62.0,60.6,29.77,NNW,341,7.0,18.0,95,0.00,,---,0.00,VWS V14.01,2013-11-01 06:00:00,
2013-11-01 02:05:00,62.0,60.6,29.76,SSW,212,5.0,16.0,95,0.00,,---,0.00,VWS V14.01,2013-11-01 06:05:00,
2013-11-01 02:10:00,62.0,60.6,29.77,West,271,15.0,16.0,95,0.00,,---,0.00,VWS V14.01,2013-11-01 06:10:00,
2013-11-01 02:15:00,62.1,60.7,29.77,ENE,58,16.0,17.0,95,0.00,,---,0.00,VWS V14.01,2013-11-01 06:15:00,
2013-11-01 02:20:00,62.1,60.7,29.77,SW,224,14.0,18.0,95,0.00,,---,0.00,VWS V14.01,2013-11-01 06:20:00,
2013-11-01 02:25:00,62.1,60.7,29.77,ENE,78,9.0,19.0,95,0.00,,---,0.00,VWS V14.01,2013-11-01 06:25:00,
2013-11-01 02:30:00,62.0,60.6,29.77,East,84,12.0,19.0,95,0.00,,---,0.00,VWS V14.01,2013-11-01 06:30:00,
2013-11-01 02:35:00,62.0,60.6,29.77,ESE,103,9.0,21.0,95,0.00,,---,0.00,VWS V14.01,2013-11-01 06:35:00,
2013-11-01 02:40:00,62.0,60.6,29.77,SW,217,13.0,21.0,95,0.00,,---,0.00,VWS V14.01,2013-11-01 06:40:00,
2013-11-01 02:45:00,62.0,60.6,29.77,SSE,162,5.0,21.0,95,0.00,,---,0.00,VWS V14.01,2013-11-01 06:45:00,
2013-11-01 02:50:00,62.0,60.6,29.76,WNW,287,4.0,21.0,95,0.00,,---,0.00,VWS V14.01,2013-11-01 06:50:00,
2013-11-01 02:55:00,62.2,60.8,29.76,South,186,19.0,21.0,95,0.00,,---,0.00,VWS V14.01,2013-11-01 06:55:00,
2013-11-01 03:00:00,62.4,61.0,29.76,ESE,120,9.0,21.0,95,0.00,,---,0.00,VWS V14.01,2013-11-01 07:00:00,
2013-11-01 03:05:00,62.6,61.2,29.76,SSW,207,14.0,22.0,95,0.00,,---,0.00,VWS V14.01,2013-11-01 07:05:00,
2013-11-01 03:10:00,62.8,61.0,29.75,SW,224,22.0,22.0,94,0.00,,---,0.00,VWS V14.01,2013-11-01 07:10:00,
2013-11-01 03:15:00,63.1,61.3,29.74,ENE,60,14.0,22.0,94,0.00,,---,0.00,VWS V14.01,2013-11-01 07:15:00,
2013-11-01 03:20:00,63.2,61.2,29.75,SSW,203,13.0,22.0,93,0.00,,---,0.00,VWS V14.01,2013-11-01 07:20:00,
2013-11-01 03:25:00,63.2,61.2,29.76,SSW,212,18.0,24.0,93,0.00,,---,0.00,VWS V14.01,2013-11-01 07:25:00,
2013-11-01 03:30:00,63.2,61.2,29.75,ESE,104,13.0,24.0,93,0.00,,---,0.00,VWS V14.01,2013-11-01 07:30:00,
2013-11-01 03:35:00,63.2,61.5,29.74,East,98,18.0,23.0,94,0.00,,---,0.00,VWS V14.01,2013-11-01 07:35:00,
2013-11-01 03:40:00,63.2,61.5,29.74,SSW,213,15.0,23.0,94,0.00,,---,0.00,VWS V14.01,2013-11-01 07:40:00,
2013-11-01 03:45:00,63.3,61.5,29.74,South,188,18.0,23.0,94,0.00,,---,0.00,VWS V14.01,2013-11-01 07:45:00,
2013-11-01 03:50:00,63.2,61.5,29.74,North,11,11.0,23.0,94,0.00,,---,0.00,VWS V14.01,2013-11-01 07:50:00,
2013-11-01 03:55:00,63.2,61.5,29.74,SSE,162,15.0,23.0,94,0.00,,---,0.00,VWS V14.01,2013-11-01 07:55:00,
2013-11-01 04:00:00,63.1,61.3,29.73,WSW,253,9.0,23.0,94,0.00,,---,0.00,VWS V14.01,2013-11-01 08:00:00,
2013-11-01 04:05:00,63.1,61.3,29.72,WSW,254,11.0,20.0,94,0.00,,---,0.00,VWS V14.01,2013-11-01 08:05:00,
2013-11-01 04:10:00,63.0,61.5,29.73,SW,217,10.0,20.0,95,0.00,,---,0.00,VWS V14.01,2013-11-01 08:10:00,
2013-11-01 04:15:00,63.1,61.7,29.74,SSW,198,10.0,22.0,95,0.00,,---,0.00,VWS V14.01,2013-11-01 08:15:00,
2013-11-01 04:20:00,63.1,61.3,29.74,SSW,194,16.0,22.0,94,0.00,,---,0.00,VWS V14.01,2013-11-01 08:20:00,
2013-11-01 04:25:00,63.1,61.3,29.73,SW,231,16.0,22.0,94,0.00,,---,0.00,VWS V14.01,2013-11-01 08:25:00,
2013-11-01 04:30:00,63.1,61.3,29.73,East,87,12.0,23.0,94,0.00,,---,0.00,VWS V14.01,2013-11-01 08:30:00,
2013-11-01 04:35:00,63.1,61.3,29.72,WSW,246,9.0,20.0,94,0.00,,---,0.00,VWS V14.01,2013-11-01 08:35:00,
2013-11-01 04:41:00,63.0,61.5,29.72,NNW,330,13.0,21.0,95,0.00,,---,0.00,VWS V14.01,2013-11-01 08:41:00,
2013-11-01 04:46:00,63.0,61.5,29.72,ESE,110,12.0,21.0,95,0.00,,---,0.00,VWS V14.01,2013-11-01 08:46:00,
2013-11-01 04:51:00,63.0,61.5,29.71,SW,232,10.0,21.0,95,0.00,,---,0.00,VWS V14.01,2013-11-01 08:51:00,
2013-11-01 04:56:00,63.1,61.7,29.71,SE,132,8.0,21.0,95,0.00,,---,0.00,VWS V14.01,2013-11-01 08:56:00,
2013-11-01 05:01:00,63.1,61.7,29.71,SW,217,8.0,21.0,95,0.00,,---,0.00,VWS V14.01,2013-11-01 09:01:00,
2013-11-01 05:06:00,63.0,61.5,29.71,SSE,149,7.0,17.0,95,0.00,,---,0.00,VWS V14.01,2013-11-01 09:06:00,
2013-11-01 05:11:00,63.0,61.5,29.70,NE,52,12.0,17.0,95,0.00,,---,0.00,VWS V14.01,2013-11-01 09:11:00,
2013-11-01 05:16:00,63.0,61.5,29.70,SW,224,8.0,20.0,95,0.00,,---,0.00,VWS V14.01,2013-11-01 09:16:00,
2013-11-01 05:21:00,63.0,61.5,29.70,ENE,67,15.0,21.0,95,0.00,,---,0.00,VWS V14.01,2013-11-01 09:21:00,
2013-11-01 05:26:00,63.1,61.7,29.70,NW,310,12.0,22.0,95,0.00,,---,0.00,VWS V14.01,2013-11-01 09:26:00,
2013-11-01 05:31:00,63.1,61.7,29.70,SW,214,16.0,22.0,95,0.00,,---,0.00,VWS V14.01,2013-11-01 09:31:00,
2013-11-01 05:36:00,63.1,61.7,29.71,SSE,166,8.0,20.0,95,0.00,,---,0.00,VWS V14.01,2013-11-01 09:36:00,
2013-11-01 05:41:00,63.1,61.7,29.70,SSW,206,15.0,20.0,95,0.00,,---,0.00,VWS V14.01,2013-11-01 09:41:00,
2013-11-01 05:46:00,63.2,61.8,29.70,West,259,10.0,21.0,95,0.00,,---,0.00,VWS V14.01,2013-11-01 09:46:00,
2013-11-01 05:51:00,63.2,61.8,29.70,ESE,108,14.0,21.0,95,0.00,,---,0.00,VWS V14.01,2013-11-01 09:51:00,
2013-11-01 05:56:00,63.2,61.8,29.69,WSW,258,11.0,21.0,95,0.00,,---,0.00,VWS V14.01,2013-11-01 09:56:00,
2013-11-01 06:01:00,63.2,61.8,29.70,WNW,294,8.0,21.0,95,0.00,,---,0.00,VWS V14.01,2013-11-01 10:01:00,
2013-11-01 06:06:00,63.2,61.8,29.69,South,183,14.0,18.0,95,0.00,,---,0.00,VWS V14.01,2013-11-01 10:06:00,
2013-11-01 06:11:00,63.2,61.8,29.69,SSE,154,11.0,18.0,95,0.00,,---,0.00,VWS V14.01,2013-11-01 10:11:00,
2013-11-01 06:16:00,63.2,61.8,29.69,SW,233,11.0,22.0,95,0.00,,---,0.00,VWS V14.01,2013-11-01 10:16:00,
2013-11-01 06:21:00,63.2,61.5,29.69,North,6,13.0,24.0,94,0.00,,---,0.00,VWS V14.01,2013-11-01 10:21:00,
2013-11-01 06:26:00,63.3,61.5,29.70,East,94,12.0,24.0,94,0.00,,---,0.00,VWS V14.01,2013-11-01 10:26:00,
2013-11-01 06:31:00,63.3,61.5,29.70,SSW,199,10.0,24.0,94,0.00,,---,0.00,VWS V14.01,2013-11-01 10:31:00,
2013-11-01 06:36:00,63.5,62.0,29.69,NNW,342,16.0,22.0,95,0.00,,---,0.00,VWS V14.01,2013-11-01 10:36:00,
2013-11-01 06:41:00,63.5,61.8,29.69,SW,228,9.0,22.0,94,0.00,,---,0.00,VWS V14.01,2013-11-01 10:41:00,
2013-11-01 06:46:00,63.5,61.8,29.68,South,189,16.0,22.0,94,0.00,,---,0.00,VWS V14.01,2013-11-01 10:46:00,
2013-11-01 06:51:00,63.4,61.7,29.67,SSW,204,17.0,22.0,94,0.00,,---,0.00,VWS V14.01,2013-11-01 10:51:00,
2013-11-01 06:56:00,63.3,61.5,29.67,NW,307,12.0,22.0,94,0.00,,---,0.00,VWS V14.01,2013-11-01 10:56:00,
2013-11-01 07:01:00,63.3,61.8,29.67,ESE,105,17.0,18.0,95,0.00,,---,0.00,VWS V14.01,2013-11-01 11:01:00,
2013-11-01 07:06:00,63.4,62.0,29.67,ENE,68,10.0,21.0,95,0.00,,---,0.00,VWS V14.01,2013-11-01 11:06:00,
2013-11-01 07:11:00,63.4,61.7,29.67,ESE,120,7.0,23.0,94,0.00,,---,0.00,VWS V14.01,2013-11-01 11:11:00,
2013-11-01 07:16:00,63.4,61.7,29.67,SE,135,16.0,23.0,94,0.00,,---,0.00,VWS V14.01,2013-11-01 11:16:00,
2013-11-01 07:21:00,63.4,61.7,29.67,West,268,15.0,23.0,94,0.00,,---,0.00,VWS V14.01,2013-11-01 11:21:00,
2013-11-01 07:26:00,63.4,61.7,29.66,WSW,247,16.0,25.0,94,0.00,,---,0.00,VWS V14.01,2013-11-01 11:26:00,
2013-11-01 07:31:00,63.4,61.7,29.67,NNE,17,7.0,14.0,94,0.00,,---,0.00,VWS V14.01,2013-11-01 11:31:00,
2013-11-01 07:36:00,63.5,61.8,29.67,West,271,9.0,24.0,94,0.00,,---,0.00,VWS V14.01,2013-11-01 11:36:00,
2013-11-01 07:41:00,63.4,61.7,29.67,SSW,210,17.0,24.0,94,0.00,,---,0.00,VWS V14.01,2013-11-01 11:41:00,
2013-11-01 07:46:00,63.4,61.7,29.67,ESE,107,15.0,24.0,94,0.00,,---,0.00,VWS V14.01,2013-11-01 11:46:00,
2013-11-01 07:51:00,63.5,61.8,29.67,SSW,203,10.0,24.0,94,0.00,,---,0.00,VWS V14.01,2013-11-01 11:51:00,
2013-11-01 07:56:00,63.7,62.0,29.67,SE,146,8.0,24.0,94,0.00,,---,0.00,VWS V14.01,2013-11-01 11:56:00,
2013-11-01 08:01:00,63.8,62.0,29.67,SW,230,9.0,11.0,94,0.00,,---,0.00,VWS V14.01,2013-11-01 12:01:00,
2013-11-01 08:06:00,63.8,62.0,29.67,SSW,205,13.0,25.0,94,0.00,,---,0.00,VWS V14.01,2013-11-01 12:06:00,
2013-11-01 08:11:00,63.9,62.1,29.67,NE,46,14.0,25.0,94,0.00,,---,0.00,VWS V14.01,2013-11-01 12:11:00,
2013-11-01 08:16:00,64.0,61.9,29.67,North,8,15.0,25.0,93,0.00,,---,0.00,VWS V14.01,2013-11-01 12:16:00,
2013-11-01 08:21:00,64.1,62.0,29.67,WSW,256,19.0,25.0,93,0.00,,---,0.00,VWS V14.01,2013-11-01 12:21:00,
2013-11-01 08:26:00,64.0,61.9,29.66,SSE,167,14.0,25.0,93,0.00,,---,0.00,VWS V14.01,2013-11-01 12:26:00,
2013-11-01 08:31:00,64.0,61.9,29.67,SSW,204,16.0,16.0,93,0.00,,---,0.00,VWS V14.01,2013-11-01 12:31:00,
2013-11-01 08:36:00,64.0,61.9,29.67,SW,219,9.0,27.0,93,0.00,,---,0.00,VWS V14.01,2013-11-01 12:36:00,
2013-11-01 08:41:00,63.9,61.8,29.67,SSW,198,18.0,27.0,93,0.00,,---,0.00,VWS V14.01,2013-11-01 12:41:00,
2013-11-01 08:46:00,63.9,61.8,29.67,SSW,212,19.0,27.0,93,0.00,,---,0.00,VWS V14.01,2013-11-01 12:46:00,
2013-11-01 08:51:00,63.9,61.8,29.67,SW,214,10.0,27.0,93,0.00,,---,0.00,VWS V14.01,2013-11-01 12:51:00,
2013-11-01 08:56:00,63.9,61.8,29.67,SSE,167,11.0,27.0,93,0.00,,---,0.00,VWS V14.01,2013-11-01 12:56:00,
2013-11-01 09:01:00,63.8,61.7,29.67,NW,304,12.0,15.0,93,0.00,,---,0.00,VWS V14.01,2013-11-01 13:01:00,
2013-11-01 09:06:00,63.8,61.7,29.67,SSW,195,9.0,21.0,93,0.00,,---,0.00,VWS V14.01,2013-11-01 13:06:00,
2013-11-01 09:11:00,63.9,61.8,29.67,SSE,162,15.0,21.0,93,0.00,,---,0.00,VWS V14.01,2013-11-01 13:11:00,
2013-11-01 09:16:00,64.0,61.9,29.67,East,93,14.0,23.0,93,0.00,,---,0.00,VWS V14.01,2013-11-01 13:16:00,
2013-11-01 09:21:00,64.1,62.0,29.66,NNW,337,13.0,23.0,93,0.00,,---,0.00,VWS V14.01,2013-11-01 13:21:00,
2013-11-01 09:26:00,64.3,62.2,29.66,South,180,13.0,24.0,93,0.00,,---,0.00,VWS V14.01,2013-11-01 13:26:00,
2013-11-01 09:31:00,64.5,62.4,29.66,South,182,17.0,20.0,93,0.00,,---,0.00,VWS V14.01,2013-11-01 13:31:00,
2013-11-01 09:36:00,64.5,62.4,29.66,SE,128,21.0,25.0,93,0.00,,---,0.00,VWS V14.01,2013-11-01 13:36:00,
2013-11-01 09:41:00,64.5,62.1,29.66,SSW,206,17.0,25.0,92,0.00,,---,0.00,VWS V14.01,2013-11-01 13:41:00,
2013-11-01 09:46:00,64.4,62.3,29.65,SE,131,19.0,25.0,93,0.00,,---,0.00,VWS V14.01,2013-11-01 13:46:00,
2013-11-01 09:51:00,64.4,62.3,29.66,SSW,195,13.0,25.0,93,0.00,,---,0.00,VWS V14.01,2013-11-01 13:51:00,
2013-11-01 09:56:00,64.3,62.2,29.66,ENE,68,10.0,26.0,93,0.00,,---,0.00,VWS V14.01,2013-11-01 13:56:00,
2013-11-01 10:01:00,64.3,62.2,29.66,NNW,336,8.0,17.0,93,0.00,,---,0.00,VWS V14.01,2013-11-01 14:01:00,
2013-11-01 10:06:00,64.2,62.1,29.66,SSW,203,13.0,19.0,93,0.00,,---,0.00,VWS V14.01,2013-11-01 14:06:00,
2013-11-01 10:11:00,64.1,62.0,29.66,SSW,200,9.0,22.0,93,0.00,,---,0.00,VWS V14.01,2013-11-01 14:11:00,
2013-11-01 10:16:00,64.0,62.2,29.67,SE,139,18.0,22.0,94,0.00,,---,0.00,VWS V14.01,2013-11-01 14:16:00,
2013-11-01 10:21:00,64.0,62.2,29.67,WSW,239,22.0,22.0,94,0.00,,---,0.00,VWS V14.01,2013-11-01 14:21:00,
2013-11-01 10:26:00,64.1,62.3,29.67,SW,223,13.0,24.0,94,0.00,,---,0.00,VWS V14.01,2013-11-01 14:26:00,
2013-11-01 10:31:00,64.2,62.4,29.66,NNW,342,17.0,21.0,94,0.00,,---,0.00,VWS V14.01,2013-11-01 14:31:00,
2013-11-01 10:36:00,64.3,62.5,29.67,NE,55,14.0,23.0,94,0.00,,---,0.00,VWS V14.01,2013-11-01 14:36:00,
2013-11-01 10:41:00,64.3,62.5,29.66,SSW,195,10.0,27.0,94,0.00,,---,0.00,VWS V14.01,2013-11-01 14:41:00,
2013-11-01 10:46:00,64.2,62.4,29.66,SW,232,12.0,27.0,94,0.00,,---,0.00,VWS V14.01,2013-11-01 14:46:00,
2013-11-01 10:51:00,64.2,62.4,29.66,WSW,257,22.0,27.0,94,0.01,,---,0.01,VWS V14.01,2013-11-01 14:51:00,
2013-11-01 10:56:00,64.2,62.4,29.66,SSE,167,15.0,27.0,94,0.01,,---,0.01,VWS V14.01,2013-11-01 14:56:00,
2013-11-01 11:01:00,64.1,62.3,29.66,ESE,120,14.0,21.0,94,0.01,,---,0.01,VWS V14.01,2013-11-01 15:01:00,
2013-11-01 11:06:00,64.0,62.2,29.66,South,179,11.0,21.0,94,0.01,,---,0.01,VWS V14.01,2013-11-01 15:06:00,
2013-11-01 11:11:00,63.9,62.1,29.66,SSE,157,15.0,24.0,94,0.01,,---,0.01,VWS V14.01,2013-11-01 15:11:00,
2013-11-01 11:16:00,63.9,62.1,29.66,SSW,194,11.0,24.0,94,0.01,,---,0.01,VWS V14.01,2013-11-01 15:16:00,
2013-11-01 11:21:00,63.8,62.3,29.66,SW,221,13.0,24.0,95,0.01,,---,0.01,VWS V14.01,2013-11-01 15:21:00,
2013-11-01 11:26:00,63.9,62.4,29.66,NE,44,20.0,24.0,95,0.01,,---,0.01,VWS V14.01,2013-11-01 15:26:00,
2013-11-01 11:31:00,63.8,62.3,29.66,SSW,194,7.0,22.0,95,0.01,,---,0.01,VWS V14.01,2013-11-01 15:31:00,
2013-11-01 11:36:00,63.8,62.3,29.66,SSW,201,10.0,22.0,95,0.01,,---,0.01,VWS V14.01,2013-11-01 15:36:00,
2013-11-01 11:41:00,63.8,62.3,29.66,North,350,10.0,22.0,95,0.01,,---,0.01,VWS V14.01,2013-11-01 15:41:00,
2013-11-01 11:46:00,63.8,62.3,29.66,SSW,205,16.0,22.0,95,0.01,,---,0.01,VWS V14.01,2013-11-01 15:46:00,
2013-11-01 11:51:00,63.9,62.4,29.66,SSW,192,5.0,25.0,95,0.01,,---,0.01,VWS V14.01,2013-11-01 15:51:00,
2013-11-01 11:56:00,63.9,62.4,29.66,SW,229,11.0,25.0,95,0.01,,---,0.01,VWS V14.01,2013-11-01 15:56:00,
2013-11-01 12:01:00,64.0,62.5,29.68,WSW,254,10.0,22.0,95,0.00,,---,0.01,VWS V14.01,2013-11-01 16:01:00,
2013-11-01 12:06:00,63.4,61.3,29.69,West,267,8.0,23.0,93,0.04,,---,0.05,VWS V14.01,2013-11-01 16:06:00,
2013-11-01 12:11:00,62.7,61.0,29.69,West,271,7.0,23.0,94,0.04,,---,0.05,VWS V14.01,2013-11-01 16:11:00,
2013-11-01 12:16:00,62.4,61.0,29.68,West,277,4.0,23.0,95,0.06,,---,0.07,VWS V14.01,2013-11-01 16:16:00,
2013-11-01 12:21:00,62.1,60.7,29.68,West,279,11.0,23.0,95,0.07,,---,0.08,VWS V14.01,2013-11-01 16:21:00,
2013-11-01 12:27:00,61.9,60.5,29.68,West,263,9.0,23.0,95,0.07,,---,0.08,VWS V14.01,2013-11-01 16:27:00,
2013-11-01 12:32:00,61.7,60.3,29.68,WSW,247,12.0,13.0,95,0.08,,---,0.09,VWS V14.01,2013-11-01 16:32:00,
2013-11-01 12:37:00,61.6,60.2,29.68,SW,223,8.0,14.0,95,0.08,,---,0.09,VWS V14.01,2013-11-01 16:37:00,
2013-11-01 12:42:00,61.4,60.2,29.67,West,259,9.0,16.0,96,0.09,,---,0.10,VWS V14.01,2013-11-01 16:42:00,
2013-11-01 12:47:00,61.4,60.2,29.67,WSW,249,8.0,16.0,96,0.09,,---,0.10,VWS V14.01,2013-11-01 16:47:00,
2013-11-01 12:52:00,61.3,60.2,29.67,SSW,204,8.0,16.0,96,0.10,,---,0.11,VWS V14.01,2013-11-01 16:52:00,
2013-11-01 12:57:00,61.3,60.2,29.67,WSW,255,5.0,16.0,96,0.10,,---,0.11,VWS V14.01,2013-11-01 16:57:00,
2013-11-01 13:02:00,61.3,60.2,29.66,WSW,256,3.0,5.0,96,0.10,,---,0.11,VWS V14.01,2013-11-01 17:02:00,
2013-11-01 13:07:00,61.3,60.2,29.66,SW,225,3.0,11.0,96,0.10,,---,0.11,VWS V14.01,2013-11-01 17:07:00,
2013-11-01 13:12:00,61.2,60.0,29.66,SSW,195,2.0,11.0,96,0.10,,---,0.11,VWS V14.01,2013-11-01 17:12:00,
2013-11-01 13:17:00,61.1,60.0,29.66,WSW,252,7.0,11.0,96,0.10,,---,0.11,VWS V14.01,2013-11-01 17:17:00,
2013-11-01 13:22:00,61.1,60.0,29.66,WSW,247,8.0,11.0,96,0.10,,---,0.11,VWS V14.01,2013-11-01 17:22:00,
2013-11-01 13:27:00,61.2,59.8,29.66,West,274,4.0,11.0,95,0.10,,---,0.11,VWS V14.01,2013-11-01 17:27:00,
2013-11-01 13:32:00,61.2,59.8,29.65,WSW,257,8.0,11.0,95,0.02,,---,0.11,VWS V14.01,2013-11-01 17:32:00,
2013-11-01 13:37:00,61.2,59.8,29.65,West,278,7.0,11.0,95,0.02,,---,0.11,VWS V14.01,2013-11-01 17:37:00,
2013-11-01 13:42:00,61.2,59.8,29.65,WSW,249,8.0,11.0,95,0.02,,---,0.11,VWS V14.01,2013-11-01 17:42:00,
2013-11-01 13:47:00,61.2,59.8,29.65,WSW,245,6.0,11.0,95,0.02,,---,0.11,VWS V14.01,2013-11-01 17:47:00,
2013-11-01 13:52:00,61.2,59.8,29.65,WSW,253,7.0,11.0,95,0.02,,---,0.11,VWS V14.01,2013-11-01 17:52:00,
2013-11-01 13:57:00,61.2,59.8,29.65,WSW,251,4.0,11.0,95,0.03,,---,0.12,VWS V14.01,2013-11-01 17:57:00,
2013-11-01 14:02:00,61.2,59.8,29.65,WSW,254,6.0,8.0,95,0.01,,---,0.12,VWS V14.01,2013-11-01 18:02:00,
2013-11-01 14:07:00,61.3,60.2,29.64,SW,235,5.0,8.0,96,0.01,,---,0.12,VWS V14.01,2013-11-01 18:07:00,
2013-11-01 14:12:00,61.3,60.2,29.64,SW,226,5.0,9.0,96,0.02,,---,0.13,VWS V14.01,2013-11-01 18:12:00,
2013-11-01 14:17:00,61.4,60.2,29.64,ESE,120,2.0,10.0,96,0.02,,---,0.13,VWS V14.01,2013-11-01 18:17:00,
2013-11-01 14:22:00,61.3,60.2,29.64,ESE,105,2.0,10.0,96,0.02,,---,0.13,VWS V14.01,2013-11-01 18:22:00,
2013-11-01 14:27:00,61.2,60.0,29.64,SSW,210,4.0,10.0,96,0.02,,---,0.13,VWS V14.01,2013-11-01 18:27:00,
2013-11-01 14:32:00,61.2,60.0,29.63,SW,230,4.0,4.0,96,0.02,,---,0.13,VWS V14.01,2013-11-01 18:32:00,
2013-11-01 14:37:00,61.0,59.9,29.63,WSW,248,3.0,5.0,96,0.02,,---,0.13,VWS V14.01,2013-11-01 18:37:00,
2013-11-01 14:42:00,61.1,60.0,29.63,WNW,287,5.0,13.0,96,0.02,,---,0.13,VWS V14.01,2013-11-01 18:42:00,
2013-11-01 14:47:00,61.0,59.9,29.63,SE,140,3.0,13.0,96,0.02,,---,0.13,VWS V14.01,2013-11-01 18:47:00,
2013-11-01 14:52:00,61.1,60.2,29.63,WSW,251,5.0,13.0,97,0.02,,---,0.13,VWS V14.01,2013-11-01 18:52:00,
2013-11-01 14:57:00,61.5,60.6,29.64,SSE,148,6.0,13.0,97,0.02,,---,0.13,VWS V14.01,2013-11-01 18:57:00,
2013-11-01 15:02:00,61.8,60.9,29.64,SSW,213,7.0,9.0,97,0.01,,---,0.13,VWS V14.01,2013-11-01 19:02:00,
2013-11-01 15:07:00,62.4,61.5,29.64,West,261,3.0,15.0,97,0.01,,---,0.13,VWS V14.01,2013-11-01 19:07:00,
2013-11-01 15:12:00,62.7,61.5,29.63,West,262,9.0,15.0,96,0.01,,---,0.13,VWS V14.01,2013-11-01 19:12:00,
2013-11-01 15:17:00,63.0,61.8,29.63,East,86,2.0,15.0,96,0.01,,---,0.13,VWS V14.01,2013-11-01 19:17:00,
2013-11-01 15:22:00,63.1,61.9,29.63,SW,232,6.0,15.0,96,0.01,,---,0.13,VWS V14.01,2013-11-01 19:22:00,
2013-11-01 15:27:00,63.3,62.1,29.62,SSE,168,5.0,15.0,96,0.01,,---,0.13,VWS V14.01,2013-11-01 19:27:00,
2013-11-01 15:32:00,63.7,62.5,29.61,SE,134,3.0,6.0,96,0.00,,---,0.13,VWS V14.01,2013-11-01 19:32:00,
2013-11-01 15:37:00,63.0,61.2,29.62,NE,55,1.0,6.0,94,0.00,,---,0.13,VWS V14.01,2013-11-01 19:37:00,
2013-11-01 15:42:00,62.3,60.8,29.63,WNW,292,3.0,10.0,95,0.00,,---,0.13,VWS V14.01,2013-11-01 19:42:00,
2013-11-01 15:47:00,61.9,60.5,29.63,East,89,7.0,10.0,95,0.00,,---,0.13,VWS V14.01,2013-11-01 19:47:00,
2013-11-01 15:52:00,61.6,60.2,29.62,SE,139,1.0,10.0,95,0.00,,---,0.13,VWS V14.01,2013-11-01 19:52:00,
2013-11-01 15:57:00,61.4,60.2,29.61,SSE,168,2.0,10.0,96,0.00,,---,0.13,VWS V14.01,2013-11-01 19:57:00,
2013-11-01 16:02:00,61.4,60.2,29.61,South,185,2.0,6.0,96,0.00,,---,0.13,VWS V14.01,2013-11-01 20:02:00,
2013-11-01 16:07:00,61.4,60.2,29.63,SW,224,2.0,8.0,96,0.00,,---,0.13,VWS V14.01,2013-11-01 20:07:00,
2013-11-01 16:12:00,61.3,60.2,29.64,SW,221,2.0,9.0,96,0.00,,---,0.13,VWS V14.01,2013-11-01 20:12:00,
2013-11-01 16:17:00,61.3,60.2,29.65,SSW,208,5.0,9.0,96,0.00,,---,0.13,VWS V14.01,2013-11-01 20:17:00,
2013-11-01 16:22:00,61.3,60.2,29.65,WSW,242,5.0,10.0,96,0.00,,---,0.13,VWS V14.01,2013-11-01 20:22:00,
2013-11-01 16:27:00,61.2,60.0,29.64,ENE,64,3.0,10.0,96,0.00,,---,0.13,VWS V14.01,2013-11-01 20:27:00,
2013-11-01 16:32:00,61.3,60.2,29.63,South,176,6.0,6.0,96,0.00,,---,0.13,VWS V14.01,2013-11-01 20:32:00,
2013-11-01 16:37:00,61.3,60.4,29.63,East,81,2.0,8.0,97,0.00,,---,0.13,VWS V14.01,2013-11-01 20:37:00,
2013-11-01 16:42:00,61.4,60.5,29.63,SSW,201,2.0,9.0,97,0.00,,---,0.13,VWS V14.01,2013-11-01 20:42:00,
2013-11-01 16:47:00,61.5,60.6,29.63,SSE,149,5.0,9.0,97,0.00,,---,0.13,VWS V14.01,2013-11-01 20:47:00,
2013-11-01 16:52:00,61.5,60.3,29.64,SW,219,3.0,9.0,96,0.00,,---,0.13,VWS V14.01,2013-11-01 20:52:00,
2013-11-01 16:57:00,61.6,60.7,29.63,SSW,210,4.0,9.0,97,0.00,,---,0.13,VWS V14.01,2013-11-01 20:57:00,
2013-11-01 17:02:00,61.7,60.8,29.64,SW,219,3.0,7.0,97,0.00,,---,0.13,VWS V14.01,2013-11-01 21:02:00,
2013-11-01 17:07:00,62.0,61.1,29.64,ESE,106,4.0,7.0,97,0.00,,---,0.13,VWS V14.01,2013-11-01 21:07:00,
2013-11-01 17:13:00,62.1,61.0,29.63,SW,222,4.0,7.0,96,0.00,,---,0.13,VWS V14.01,2013-11-01 21:13:00,
2013-11-01 17:18:00,61.8,60.7,29.64,North,7,0.0,8.0,96,0.00,,---,0.13,VWS V14.01,2013-11-01 21:18:00,
2013-11-01 17:23:00,61.4,60.0,29.64,WSW,250,2.0,8.0,95,0.00,,---,0.13,VWS V14.01,2013-11-01 21:23:00,
2013-11-01 17:28:00,61.2,60.0,29.64,ESE,105,1.0,8.0,96,0.00,,---,0.13,VWS V14.01,2013-11-01 21:28:00,
2013-11-01 17:33:00,61.5,60.6,29.64,SW,227,3.0,9.0,97,0.00,,---,0.13,VWS V14.01,2013-11-01 21:33:00,
2013-11-01 17:38:00,61.4,60.2,29.64,SSW,199,4.0,9.0,96,0.00,,---,0.13,VWS V14.01,2013-11-01 21:38:00,
2013-11-01 17:43:00,61.5,60.6,29.64,SSW,207,2.0,9.0,97,0.00,,---,0.13,VWS V14.01,2013-11-01 21:43:00,
2013-11-01 17:48:00,61.5,60.6,29.64,SE,139,1.0,9.0,97,0.00,,---,0.13,VWS V14.01,2013-11-01 21:48:00,
2013-11-01 17:53:00,61.4,60.5,29.65,ESE,122,5.0,9.0,97,0.00,,---,0.13,VWS V14.01,2013-11-01 21:53:00,
2013-11-01 17:58:00,61.2,60.3,29.65,SE,127,3.0,9.0,97,0.00,,---,0.13,VWS V14.01,2013-11-01 21:58:00,
2013-11-01 18:03:00,61.1,60.2,29.65,East,79,5.0,6.0,97,0.00,,---,0.13,VWS V14.01,2013-11-01 22:03:00,
2013-11-01 18:08:00,61.5,60.9,29.65,SSE,155,4.0,10.0,98,0.00,,---,0.13,VWS V14.01,2013-11-01 22:08:00,
2013-11-01 18:13:00,61.6,60.7,29.64,SW,219,1.0,10.0,97,0.00,,---,0.13,VWS V14.01,2013-11-01 22:13:00,
2013-11-01 18:18:00,61.4,60.5,29.63,SSW,202,2.0,10.0,97,0.00,,---,0.13,VWS V14.01,2013-11-01 22:18:00,
2013-11-01 18:23:00,61.6,60.7,29.64,SSW,201,2.0,10.0,97,0.00,,---,0.13,VWS V14.01,2013-11-01 22:23:00,
2013-11-01 18:28:00,61.5,60.6,29.64,SW,214,2.0,10.0,97,0.00,,---,0.13,VWS V14.01,2013-11-01 22:28:00,
2013-11-01 18:33:00,61.4,60.5,29.64,ESE,118,3.0,8.0,97,0.00,,---,0.13,VWS V14.01,2013-11-01 22:33:00,
2013-11-01 18:38:00,61.5,60.6,29.64,SSW,212,3.0,9.0,97,0.00,,---,0.13,VWS V14.01,2013-11-01 22:38:00,
2013-11-01 18:43:00,61.1,60.2,29.65,East,86,3.0,9.0,97,0.00,,---,0.13,VWS V14.01,2013-11-01 22:43:00,
2013-11-01 18:48:00,60.9,60.0,29.64,SSW,212,2.0,9.0,97,0.00,,---,0.13,VWS V14.01,2013-11-01 22:48:00,
2013-11-01 18:53:00,60.6,59.8,29.65,West,259,4.0,9.0,97,0.00,,---,0.13,VWS V14.01,2013-11-01 22:53:00,
2013-11-01 18:58:00,60.7,59.8,29.66,SW,230,5.0,9.0,97,0.00,,---,0.13,VWS V14.01,2013-11-01 22:58:00,
2013-11-01 19:03:00,60.7,60.1,29.66,ENE,61,3.0,6.0,98,0.00,,---,0.13,VWS V14.01,2013-11-01 23:03:00,
2013-11-01 19:08:00,60.7,60.1,29.67,SSW,197,2.0,9.0,98,0.00,,---,0.13,VWS V14.01,2013-11-01 23:08:00,
2013-11-01 19:13:00,61.0,60.4,29.67,SSE,155,4.0,9.0,98,0.00,,---,0.13,VWS V14.01,2013-11-01 23:13:00,
2013-11-01 19:18:00,61.1,60.5,29.67,East,89,4.0,9.0,98,0.00,,---,0.13,VWS V14.01,2013-11-01 23:18:00,
2013-11-01 19:23:00,61.4,60.8,29.66,NNW,333,2.0,9.0,98,0.00,,---,0.13,VWS V14.01,2013-11-01 23:23:00,
2013-11-01 19:28:00,61.4,60.8,29.66,NE,56,6.0,9.0,98,0.00,,---,0.13,VWS V14.01,2013-11-01 23:28:00,
2013-11-01 19:33:00,61.2,60.3,29.65,WSW,249,5.0,5.0,97,0.00,,---,0.13,VWS V14.01,2013-11-01 23:33:00,
2013-11-01 19:38:00,61.0,60.4,29.65,SSE,150,3.0,10.0,98,0.00,,---,0.13,VWS V14.01,2013-11-01 23:38:00,
2013-11-01 19:43:00,61.0,60.4,29.67,SW,220,7.0,12.0,98,0.00,,---,0.13,VWS V14.01,2013-11-01 23:43:00,
2013-11-01 19:48:00,61.6,61.0,29.67,SW,222,3.0,12.0,98,0.00,,---,0.13,VWS V14.01,2013-11-01 23:48:00,
2013-11-01 19:54:00,61.6,61.0,29.67,SW,226,5.0,12.0,98,0.00,,---,0.13,VWS V14.01,2013-11-01 23:54:00,
2013-11-01 19:59:00,61.6,61.0,29.66,East,85,5.0,12.0,98,0.00,,---,0.13,VWS V14.01,2013-11-01 23:59:00,
2013-11-01 20:04:00,61.6,61.0,29.66,WSW,251,5.0,10.0,98,0.00,,---,0.13,VWS V14.01,2013-11-02 00:04:00,
2013-11-01 20:09:00,61.8,61.2,29.66,NE,35,2.0,10.0,98,0.00,,---,0.13,VWS V14.01,2013-11-02 00:09:00,
2013-11-01 20:14:00,61.3,60.4,29.67,SE,131,3.0,10.0,97,0.00,,---,0.13,VWS V14.01,2013-11-02 00:14:00,
2013-11-01 20:19:00,61.8,61.2,29.67,NNW,333,4.0,12.0,98,0.00,,---,0.13,VWS V14.01,2013-11-02 00:19:00,
2013-11-01 20:24:00,61.8,61.2,29.67,SW,222,3.0,12.0,98,0.00,,---,0.13,VWS V14.01,2013-11-02 00:24:00,
2013-11-01 20:29:00,61.8,61.2,29.66,SSE,154,6.0,12.0,98,0.00,,---,0.13,VWS V14.01,2013-11-02 00:29:00,
2013-11-01 20:34:00,62.1,61.5,29.65,SSW,205,2.0,5.0,98,0.00,,---,0.13,VWS V14.01,2013-11-02 00:34:00,
2013-11-01 20:39:00,62.5,61.9,29.65,SW,233,3.0,7.0,98,0.00,,---,0.13,VWS V14.01,2013-11-02 00:39:00,
2013-11-01 20:44:00,62.1,61.2,29.65,East,94,5.0,7.0,97,0.00,,---,0.13,VWS V14.01,2013-11-02 00:44:00,
2013-11-01 20:49:00,61.9,61.0,29.65,East,84,4.0,7.0,97,0.00,,---,0.13,VWS V14.01,2013-11-02 00:49:00,
2013-11-01 20:54:00,62.0,61.4,29.66,South,172,2.0,7.0,98,0.00,,---,0.13,VWS V14.01,2013-11-02 00:54:00,
2013-11-01 20:59:00,61.6,60.7,29.66,SSW,205,1.0,7.0,97,0.00,,---,0.13,VWS V14.01,2013-11-02 00:59:00,
2013-11-01 21:04:00,61.2,60.3,29.66,SSW,192,0.0,6.0,97,0.00,,---,0.13,VWS V14.01,2013-11-02 01:04:00,
2013-11-01 21:09:00,61.1,60.5,29.66,SSW,200,2.0,9.0,98,0.00,,---,0.13,VWS V14.01,2013-11-02 01:09:00,
2013-11-01 21:14:00,61.5,60.9,29.67,West,278,3.0,11.0,98,0.00,,---,0.13,VWS V14.01,2013-11-02 01:14:00,
2013-11-01 21:19:00,61.4,60.8,29.67,SW,226,6.0,11.0,98,0.00,,---,0.13,VWS V14.01,2013-11-02 01:19:00,
2013-11-01 21:24:00,61.7,61.1,29.67,SSW,195,6.0,13.0,98,0.00,,---,0.13,VWS V14.01,2013-11-02 01:24:00,
2013-11-01 21:29:00,61.9,61.3,29.68,South,180,8.0,13.0,98,0.00,,---,0.13,VWS V14.01,2013-11-02 01:29:00,
2013-11-01 21:34:00,61.8,61.2,29.68,ENE,67,5.0,9.0,98,0.00,,---,0.13,VWS V14.01,2013-11-02 01:34:00,
2013-11-01 21:39:00,61.3,60.4,29.69,SW,223,2.0,9.0,97,0.00,,---,0.13,VWS V14.01,2013-11-02 01:39:00,
2013-11-01 21:44:00,60.9,60.0,29.70,SSE,153,5.0,9.0,97,0.00,,---,0.13,VWS V14.01,2013-11-02 01:44:00,
2013-11-01 21:49:00,60.9,60.3,29.69,WSW,255,4.0,9.0,98,0.00,,---,0.13,VWS V14.01,2013-11-02 01:49:00,
2013-11-01 21:54:00,61.0,60.4,29.69,ENE,66,8.0,9.0,98,0.00,,---,0.13,VWS V14.01,2013-11-02 01:54:00,
2013-11-01 21:59:00,61.1,60.5,29.70,WSW,238,1.0,9.0,98,0.00,,---,0.13,VWS V14.01,2013-11-02 01:59:00,
2013-11-01 22:04:00,61.5,61.2,29.69,South,181,3.0,9.0,99,0.00,,---,0.13,VWS V14.01,2013-11-02 02:04:00,
2013-11-01 22:09:00,61.7,61.4,29.68,SE,129,2.0,10.0,99,0.00,,---,0.13,VWS V14.01,2013-11-02 02:09:00,
2013-11-01 22:14:00,61.7,61.1,29.67,South,174,6.0,10.0,98,0.00,,---,0.13,VWS V14.01,2013-11-02 02:14:00,
2013-11-01 22:19:00,61.4,60.8,29.68,South,186,7.0,10.0,98,0.00,,---,0.13,VWS V14.01,2013-11-02 02:19:00,
2013-11-01 22:24:00,61.8,61.5,29.68,SSW,197,2.0,11.0,99,0.00,,---,0.13,VWS V14.01,2013-11-02 02:24:00,
2013-11-01 22:29:00,61.2,60.6,29.67,SSW,199,2.0,11.0,98,0.00,,---,0.13,VWS V14.01,2013-11-02 02:29:00,
2013-11-01 22:34:00,60.9,60.3,29.67,WSW,238,2.0,4.0,98,0.00,,---,0.13,VWS V14.01,2013-11-02 02:34:00,
2013-11-01 22:39:00,60.8,60.2,29.67,SSW,196,3.0,6.0,98,0.00,,---,0.13,VWS V14.01,2013-11-02 02:39:00,
2013-11-01 22:44:00,60.8,60.2,29.67,SW,214,2.0,6.0,98,0.00,,---,0.13,VWS V14.01,2013-11-02 02:44:00,
2013-11-01 22:49:00,61.0,60.7,29.67,NNE,31,1.0,6.0,99,0.00,,---,0.13,VWS V14.01,2013-11-02 02:49:00,
2013-11-01 22:54:00,61.2,60.9,29.66,SW,236,1.0,6.0,99,0.00,,---,0.13,VWS V14.01,2013-11-02 02:54:00,
2013-11-01 22:59:00,60.9,60.3,29.66,South,183,1.0,6.0,98,0.00,,---,0.13,VWS V14.01,2013-11-02 02:59:00,
2013-11-01 23:04:00,61.3,61.0,29.66,ESE,118,5.0,5.0,99,0.00,,---,0.13,VWS V14.01,2013-11-02 03:04:00,
2013-11-01 23:09:00,60.9,60.3,29.65,SW,221,2.0,5.0,98,0.00,,---,0.13,VWS V14.01,2013-11-02 03:09:00,
2013-11-01 23:14:00,61.0,60.4,29.65,SSW,203,3.0,5.0,98,0.00,,---,0.13,VWS V14.01,2013-11-02 03:14:00,
2013-11-01 23:19:00,61.0,60.4,29.65,SW,234,3.0,5.0,98,0.00,,---,0.13,VWS V14.01,2013-11-02 03:19:00,
2013-11-01 23:24:00,61.1,60.5,29.63,SE,143,1.0,5.0,98,0.00,,---,0.13,VWS V14.01,2013-11-02 03:24:00,
2013-11-01 23:29:00,61.0,60.4,29.64,SSW,205,3.0,5.0,98,0.00,,---,0.13,VWS V14.01,2013-11-02 03:29:00,
2013-11-01 23:34:00,61.4,61.1,29.65,NNW,335,1.0,7.0,99,0.00,,---,0.13,VWS V14.01,2013-11-02 03:34:00,
2013-11-01 23:39:00,62.0,61.7,29.65,SSW,204,5.0,8.0,99,0.00,,---,0.13,VWS V14.01,2013-11-02 03:39:00,
2013-11-01 23:44:00,61.5,61.2,29.64,SW,231,4.0,8.0,99,0.00,,---,0.13,VWS V14.01,2013-11-02 03:44:00,
2013-11-01 23:49:00,61.3,60.7,29.65,SE,128,1.0,8.0,98,0.00,,---,0.13,VWS V14.01,2013-11-02 03:49:00,
2013-11-01 23:54:00,61.5,61.2,29.65,SSW,198,5.0,8.0,99,0.00,,---,0.13,VWS V14.01,2013-11-02 03:54:00,
2013-11-01 23:59:00,61.6,61.3,29.65,SSW,195,3.0,8.0,99,0.00,,---,0.13,VWS V14.01,2013-11-02 03:59:00,